Location: Waning Moon II Observatory
(30.3730°N, 89.7620°W)
Time: 22:13:23
(UTC-05:00)

Daily predictions for brighter satellites

Satellite Brightness Start Highest point End
(mag) Time Altitude Azimuth Time Altitude Azimuth Time Altitude Azimuth
Atlas Centaur 2 3.5 19:00:07 10° W 19:08:31 65° SSW 19:16:43 10° ESE
Cosmos 1378 3.4 19:06:56 10° N 19:10:32 44° E 19:14:05 10° SSE
Cosmos 1371 Rocket 4.3 19:07:22 10° NNW 19:12:40 75° WSW 19:17:59 10° S
CZ-2C R/B 3.6 19:08:46 10° S 19:13:34 47° W 19:18:14 10° NNW
USA 215 3.3 19:11:38 10° NE 19:18:06 62° SE 19:24:32 10° SSW
FREGAT/IRIS 3.8 19:18:15 10° SE 19:20:49 25° ENE 19:23:24 10° NNE
Abrixas 4.4 19:20:05 10° W 19:22:43 28° NW 19:25:22 10° NNE
COSMO-SKYMED 1 3.7 19:19:31 10° N 19:23:43 50° WNW 19:27:54 10° SSW
BREEZE-M DEB (TANK) 4.2 19:20:56 10° NW 19:24:53 79° NE 19:39:28 10° SE
Cosmos 1072 Rocket 4.5 19:19:20 10° S 19:25:27 90° E 19:31:35 10° N
Meteor 1-28 Rocket 3.1 19:21:56 10° NNE 19:25:38 69° E 19:29:18 10° S
Helios 1B rocket 3.0 19:23:18 10° NNE 19:27:05 35° E 19:30:52 10° SSE
IDEFIX/ARIANE 42P 4.2 19:22:47 10° SSW 19:27:38 39° W 19:32:33 10° NNW
Cosmos 2278 Rocket 3.9 19:23:03 10° NW 19:28:12 37° WSW 19:33:19 10° S
Cosmos 1805 3.3 19:25:06 10° S 19:28:56 57° E 19:32:48 10° NNE
GPS 2-04 Rocket1 2.9 19:30:28 10° W 19:33:50 53° NNW 19:36:40 14° ENE
Gbstr 26 Del rocket 3.0 19:29:52 10° SW 19:33:55 72° SE 19:38:50 10° NE
SeaSat 1 4.0 19:34:30 14° ESE 19:34:34 14° ESE 19:37:12 10° SE
Cosmos 1346 4.5 19:34:01 10° NNE 19:36:08 19° ENE 19:36:08 19° ENE
Cosmos 1953 2.2 19:32:27 10° S 19:36:26 75° E 19:40:24 10° N
Cosmos 2297 4.0 19:31:16 10° NNW 19:36:54 72° WSW 19:42:28 10° S
NOAA 12 4.1 19:33:52 10° SSE 19:39:02 66° ENE 19:44:16 10° N
Cosmos 1943 3.7 19:35:14 10° S 19:40:20 36° ESE 19:45:26 10° NE
SAR-Lupe-1 3.9 19:37:45 10° SSE 19:41:18 83° E 19:44:52 10° N
Cosmos 1766 Rocket 3.5 19:37:36 10° N 19:41:56 64° E 19:46:12 10° SSE
Cosmos 1076 Rocket 3.4 19:37:37 10° N 19:41:59 83° E 19:46:20 10° S
Cosmos-2242 2.9 19:40:18 10° S 19:44:38 82° E 19:49:02 10° N
Cosmos 2369 Rocket 3.8 19:41:24 10° NNE 19:44:41 15° ENE 19:45:20 15° ENE
Meteor 1-29 3.2 19:41:23 10° NNE 19:44:45 45° E 19:48:05 10° S
ATLAS CENTAUR R/B 3.7 19:41:48 10° WNW 19:44:58 23° WSW 19:47:57 10° SSW
Delta 168 3.8 19:41:16 10° WSW 19:45:20 48° S 19:49:08 20° ESE
Cosmos 1603 4.0 19:40:45 10° SSW 19:46:27 74° WNW 19:52:13 10° NNE
Cosmos 1733 4.0 19:48:10 10° SSE 19:51:33 29° E 19:54:55 10° NNE
SEDSat Delta rocket 4.0 19:46:50 10° W 19:53:27 84° N 19:57:50 24° E
Cosmos 1470 3.1 19:49:49 10° SSE 19:53:28 39° E 19:57:05 10° NNE
OAO 3 Rocket 3.6 19:50:14 10° WNW 19:54:51 51° N 19:57:20 25° ENE
Cosmos 1452 Rocket 3.4 19:53:47 10° NNW 19:59:03 86° E 20:04:17 10° SSE
Spot 1 4.1 19:55:09 10° SSE 19:59:56 79° ENE 20:04:29 10° N
Cosmos 2034 Rocket 4.3 19:54:17 10° SSW 20:00:30 69° W 20:06:48 10° N
SJ-6B 3.9 20:01:29 10° S 20:05:17 47° W 20:09:12 10° NNW
In-Cosmos 22 4.4 20:00:16 10° NNW 20:06:02 75° W 20:11:42 10° S
Cosmos 1674 3.4 20:03:22 10° NNE 20:06:20 35° NE 20:06:20 35° NE
ASTEX 1 3.4 20:02:42 10° NNE 20:07:28 51° E 20:12:12 10° S
Cosmos 1842 Rocket 3.4 20:04:40 10° S 20:08:57 70° E 20:13:16 10° NNE
ASTRO E2 2.7 20:07:30 10° W 20:11:32 74° SSW 20:12:23 52° SE
Cosmos 1500 Rocket 3.7 20:10:15 10° N 20:14:33 49° E 20:14:49 48° E
CENTAUR R/B 2.4 20:09:40 10° SSW 20:15:32 82° WNW 20:22:04 10° NNE
FengYun 1-2 T 4.1 20:13:31 10° SSE 20:19:01 79° ENE 20:24:32 10° N
Cosmos 1420 Rocket 3.9 20:13:53 10° N 20:19:12 71° ENE 20:21:43 31° SSE
ALOS 2.2 20:20:32 48° SE 20:21:33 61° ENE 20:26:09 10° N
Helios 1A 3.2 20:20:17 13° S 20:23:55 71° WSW 20:28:07 10° NNW
ISS -0.4 20:23:47 10° WNW 20:25:38 14° NW 20:27:25 10° N
Spot 2 Rocket 3.9 20:22:38 10° S 20:27:36 61° WSW 20:32:34 10° NNW
Meteosat 1 Rocket2 3.5 20:23:42 10° WSW 20:30:44 65° S 20:31:33 57° SE
Resurs 1-3 4.0 20:31:24 21° S 20:34:15 62° W 20:38:36 10° NNW
Resurs 01 Rocket 3.0 20:35:57 10° SSW 20:40:05 39° W 20:44:16 10° NNW
FENGYUN 3A 3.9 20:51:25 41° SSW 20:53:14 66° WSW 20:58:36 10° NNW
Atlas Centaur 2 4.2 20:50:50 10° W 20:57:55 30° SSW 21:00:49 24° S
SeaSat 1 3.9 21:14:24 30° WSW 21:14:24 30° WSW 21:17:01 10° SW
Cosmos 1943 Rocket 4.2 21:19:44 10° N 21:21:09 18° N 21:21:09 18° N
Cosmos 2369 Rocket 3.3 21:23:29 10° NNW 21:27:10 39° NW 21:27:10 39° NW
